Time,TemperatureF,DewpointF,PressureIn,WindDirection,WindDirectionDegrees,WindSpeedMPH,WindSpeedGustMPH,Humidity,HourlyPrecipIn,Conditions,Clouds,dailyrainin,SolarRadiationWatts/m^2,SoftwareType,DateUTC
2015-05-03 00:01:00,63.5,63.5,29.94,SSW,197,11.0,11.0,100,0.00,,,0.00,0,Wunderground v.1.15,2015-05-03 05:01:00,
2015-05-03 00:06:00,63.3,63.3,29.94,SSW,205,11.0,12.0,100,0.00,,,0.00,0,Wunderground v.1.15,2015-05-03 05:06:00,
2015-05-03 00:12:00,63.1,63.1,29.94,South,187,4.0,14.0,100,0.00,,,0.00,0,Wunderground v.1.15,2015-05-03 05:12:00,
2015-05-03 00:18:00,62.7,62.7,29.93,South,174,7.0,15.0,100,0.00,,,0.00,0,Wunderground v.1.15,2015-05-03 05:18:00,
2015-05-03 00:24:00,62.5,62.5,29.93,SSE,167,10.0,10.0,100,0.00,,,0.00,0,Wunderground v.1.15,2015-05-03 05:24:00,
2015-05-03 00:29:00,62.3,62.3,29.93,SSW,202,5.0,5.0,100,0.00,,,0.00,0,Wunderground v.1.15,2015-05-03 05:29:00,
2015-05-03 00:35:00,62.1,62.1,29.93,South,180,3.0,10.0,100,0.00,,,0.00,0,Wunderground v.1.15,2015-05-03 05:35:00,
2015-05-03 00:41:00,61.9,61.9,29.94,South,176,8.0,11.0,100,0.00,,,0.00,0,Wunderground v.1.15,2015-05-03 05:41:00,
2015-05-03 00:47:00,61.7,61.7,29.94,SSE,152,7.0,13.0,100,0.00,,,0.00,0,Wunderground v.1.15,2015-05-03 05:47:00,
2015-05-03 00:53:00,61.5,61.5,29.94,SSW,199,12.0,16.0,100,0.00,,,0.00,0,Wunderground v.1.15,2015-05-03 05:53:00,
2015-05-03 00:58:00,61.3,61.3,29.94,SSW,194,9.0,16.0,100,0.00,,,0.00,0,Wunderground v.1.15,2015-05-03 05:58:00,
2015-05-03 01:04:00,61.1,61.1,29.94,SSW,210,11.0,11.0,100,0.00,,,0.00,0,Wunderground v.1.15,2015-05-03 06:04:00,
2015-05-03 01:10:00,60.9,60.9,29.95,South,179,8.0,9.0,100,0.00,,,0.00,0,Wunderground v.1.15,2015-05-03 06:10:00,
2015-05-03 01:16:00,60.9,60.9,29.94,SSW,202,6.0,9.0,100,0.00,,,0.00,0,Wunderground v.1.15,2015-05-03 06:16:00,
2015-05-03 01:21:00,60.6,60.6,29.93,SSE,168,4.0,6.0,100,0.00,,,0.00,0,Wunderground v.1.15,2015-05-03 06:21:00,
2015-05-03 01:27:00,60.5,60.5,29.93,South,171,6.0,7.0,100,0.00,,,0.00,0,Wunderground v.1.15,2015-05-03 06:27:00,
2015-05-03 01:33:00,60.3,60.3,29.93,SSE,163,4.0,13.0,100,0.00,,,0.00,0,Wunderground v.1.15,2015-05-03 06:33:00,
2015-05-03 01:39:00,60.0,60.0,29.93,South,169,3.0,3.0,100,0.00,,,0.00,0,Wunderground v.1.15,2015-05-03 06:39:00,
2015-05-03 01:45:00,59.8,59.8,29.92,SE,134,14.0,14.0,100,0.00,,,0.00,0,Wunderground v.1.15,2015-05-03 06:45:00,
2015-05-03 01:50:00,59.6,59.6,29.92,SSE,156,10.0,10.0,100,0.00,,,0.00,0,Wunderground v.1.15,2015-05-03 06:50:00,
2015-05-03 01:56:00,59.2,59.2,29.91,SE,143,8.0,10.0,100,0.00,,,0.00,0,Wunderground v.1.15,2015-05-03 06:56:00,
2015-05-03 02:01:00,58.9,58.9,29.91,SSE,166,4.0,9.0,100,0.00,,,0.00,0,Wunderground v.1.15,2015-05-03 07:01:00,
2015-05-03 02:06:00,58.7,58.7,29.92,SE,142,7.0,11.0,100,0.00,,,0.00,0,Wunderground v.1.15,2015-05-03 07:06:00,
2015-05-03 02:11:00,58.6,58.6,29.91,SSE,165,4.0,9.0,100,0.00,,,0.00,0,Wunderground v.1.15,2015-05-03 07:11:00,
2015-05-03 02:16:00,58.5,58.5,29.92,SSE,168,3.0,12.0,100,0.00,,,0.00,0,Wunderground v.1.15,2015-05-03 07:16:00,
2015-05-03 02:21:00,58.3,58.3,29.91,South,169,3.0,7.0,100,0.00,,,0.00,0,Wunderground v.1.15,2015-05-03 07:21:00,
2015-05-03 02:26:00,58.2,58.2,29.92,SSW,193,1.0,10.0,100,0.00,,,0.00,0,Wunderground v.1.15,2015-05-03 07:26:00,
2015-05-03 02:31:00,58.1,58.1,29.92,SSE,163,8.0,10.0,100,0.00,,,0.00,0,Wunderground v.1.15,2015-05-03 07:31:00,
2015-05-03 02:36:00,58.0,58.0,29.91,South,172,6.0,11.0,100,0.00,,,0.00,0,Wunderground v.1.15,2015-05-03 07:36:00,
2015-05-03 02:41:00,57.8,57.8,29.91,South,187,6.0,11.0,100,0.00,,,0.00,0,Wunderground v.1.15,2015-05-03 07:41:00,
2015-05-03 02:46:00,57.7,57.7,29.91,SSE,165,7.0,12.0,100,0.00,,,0.00,0,Wunderground v.1.15,2015-05-03 07:46:00,
2015-05-03 02:51:00,57.5,57.5,29.91,SSE,162,8.0,13.0,100,0.00,,,0.00,0,Wunderground v.1.15,2015-05-03 07:51:00,
2015-05-03 02:56:00,57.4,57.4,29.91,SE,140,8.0,13.0,100,0.00,,,0.00,0,Wunderground v.1.15,2015-05-03 07:56:00,
2015-05-03 03:01:00,57.4,57.4,29.91,SSE,158,4.0,11.0,100,0.00,,,0.00,0,Wunderground v.1.15,2015-05-03 08:01:00,
2015-05-03 03:06:00,57.4,57.4,29.91,SSE,147,4.0,14.0,100,0.00,,,0.00,0,Wunderground v.1.15,2015-05-03 08:06:00,
2015-05-03 03:11:00,57.3,57.3,29.90,South,172,5.0,9.0,100,0.00,,,0.00,0,Wunderground v.1.15,2015-05-03 08:11:00,
2015-05-03 03:16:00,57.2,57.2,29.90,SSE,149,8.0,12.0,100,0.00,,,0.00,0,Wunderground v.1.15,2015-05-03 08:16:00,
2015-05-03 03:21:00,57.2,57.2,29.90,SSE,165,8.0,13.0,100,0.00,,,0.00,0,Wunderground v.1.15,2015-05-03 08:21:00,
2015-05-03 03:26:00,57.1,57.1,29.90,SSE,161,7.0,13.0,100,0.00,,,0.00,0,Wunderground v.1.15,2015-05-03 08:26:00,
2015-05-03 03:31:00,57.0,57.0,29.90,SSE,160,4.0,12.0,100,0.00,,,0.00,0,Wunderground v.1.15,2015-05-03 08:31:00,
2015-05-03 03:36:00,56.9,56.9,29.90,SSE,151,8.0,12.0,100,0.00,,,0.00,0,Wunderground v.1.15,2015-05-03 08:36:00,
2015-05-03 03:41:00,56.7,56.7,29.90,SSE,159,6.0,9.0,100,0.00,,,0.00,0,Wunderground v.1.15,2015-05-03 08:41:00,
2015-05-03 03:46:00,56.6,56.6,29.90,SSE,160,7.0,12.0,100,0.00,,,0.00,0,Wunderground v.1.15,2015-05-03 08:46:00,
2015-05-03 03:51:00,56.5,56.5,29.90,SSE,160,6.0,10.0,100,0.00,,,0.00,0,Wunderground v.1.15,2015-05-03 08:51:00,
2015-05-03 03:56:00,56.3,56.3,29.90,SSE,164,3.0,10.0,100,0.00,,,0.00,0,Wunderground v.1.15,2015-05-03 08:56:00,
2015-05-03 04:01:00,56.1,56.1,29.90,South,175,5.0,5.0,100,0.00,,,0.00,0,Wunderground v.1.15,2015-05-03 09:01:00,
2015-05-03 04:06:00,56.0,-99.9,29.91,South,175,2.0,6.0,0,0.00,,,0.00,0,Wunderground v.1.15,2015-05-03 09:06:00,
2015-05-03 04:11:00,56.0,-99.9,29.91,SSE,163,2.0,5.0,0,0.00,,,0.00,0,Wunderground v.1.15,2015-05-03 09:11:00,
2015-05-03 04:16:00,56.0,-99.9,29.91,South,182,5.0,5.0,0,0.00,,,0.00,0,Wunderground v.1.15,2015-05-03 09:16:00,
2015-05-03 04:21:00,55.9,-99.9,29.91,SSW,193,1.0,4.0,0,0.00,,,0.00,0,Wunderground v.1.15,2015-05-03 09:21:00,
2015-05-03 04:26:00,55.9,-99.9,29.92,SSW,193,1.0,4.0,0,0.00,,,0.00,0,Wunderground v.1.15,2015-05-03 09:26:00,
2015-05-03 04:31:00,55.8,-99.9,29.92,SSW,193,0.0,0.0,0,0.00,,,0.00,0,Wunderground v.1.15,2015-05-03 09:31:00,
2015-05-03 04:36:00,55.4,-99.9,29.92,SSW,193,0.0,2.0,0,0.00,,,0.00,0,Wunderground v.1.15,2015-05-03 09:36:00,
2015-05-03 04:41:00,55.1,-99.9,29.92,SSW,193,0.0,0.0,0,0.00,,,0.00,0,Wunderground v.1.15,2015-05-03 09:41:00,
2015-05-03 04:46:00,54.8,-44.5,29.93,SSW,193,0.0,0.0,1,0.00,,,0.00,0,Wunderground v.1.15,2015-05-03 09:46:00,
2015-05-03 04:51:00,54.4,-44.7,29.92,SSW,193,0.0,0.0,1,0.00,,,0.00,0,Wunderground v.1.15,2015-05-03 09:51:00,
2015-05-03 04:56:00,54.2,-32.8,29.92,SSW,193,0.0,0.0,2,0.00,,,0.00,0,Wunderground v.1.15,2015-05-03 09:56:00,
2015-05-03 05:01:00,54.0,-32.9,29.92,SSW,193,0.0,0.0,2,0.00,,,0.00,0,Wunderground v.1.15,2015-05-03 10:01:00,
2015-05-03 05:06:00,53.7,-25.7,29.92,SSW,193,0.0,0.0,3,0.00,,,0.00,0,Wunderground v.1.15,2015-05-03 10:06:00,
2015-05-03 05:11:00,53.4,-25.9,29.93,SSW,193,0.0,0.0,3,0.00,,,0.00,0,Wunderground v.1.15,2015-05-03 10:11:00,
2015-05-03 05:16:00,53.0,-26.1,29.93,SSW,193,0.0,0.0,3,0.00,,,0.00,0,Wunderground v.1.15,2015-05-03 10:16:00,
2015-05-03 05:21:00,52.8,-26.3,29.93,SSW,193,0.0,0.0,3,0.00,,,0.00,0,Wunderground v.1.15,2015-05-03 10:21:00,
2015-05-03 05:26:00,52.6,-16.6,29.92,SSW,193,0.0,0.0,5,0.00,,,0.00,0,Wunderground v.1.15,2015-05-03 10:26:00,
2015-05-03 05:31:00,52.5,-13.1,29.93,SSW,193,1.0,2.0,6,0.00,,,0.00,0,Wunderground v.1.15,2015-05-03 10:31:00,
2015-05-03 05:36:00,52.2,-10.2,29.92,SSW,193,1.0,2.0,7,0.00,,,0.00,0,Wunderground v.1.15,2015-05-03 10:36:00,
2015-05-03 05:41:00,51.8,-7.8,29.92,SSW,193,0.0,2.0,8,0.00,,,0.00,0,Wunderground v.1.15,2015-05-03 10:41:00,
2015-05-03 05:46:00,51.3,-8.2,29.92,SSW,193,1.0,2.0,8,0.00,,,0.00,0,Wunderground v.1.15,2015-05-03 10:46:00,
2015-05-03 05:51:00,50.9,-3.9,29.92,SSW,193,1.0,1.0,10,0.00,,,0.00,0,Wunderground v.1.15,2015-05-03 10:51:00,
2015-05-03 05:56:00,50.8,1.6,29.91,SSW,193,0.0,1.0,13,0.00,,,0.00,0,Wunderground v.1.15,2015-05-03 10:56:00,
2015-05-03 06:01:00,50.7,4.6,29.92,SSW,193,0.0,0.0,15,0.00,,,0.00,0,Wunderground v.1.15,2015-05-03 11:01:00,
2015-05-03 06:06:00,50.8,8.7,29.91,SSW,193,0.0,0.0,18,0.00,,,0.00,0,Wunderground v.1.15,2015-05-03 11:06:00,
2015-05-03 06:11:00,51.1,13.5,29.91,SE,141,2.0,4.0,22,0.00,,,0.00,0,Wunderground v.1.15,2015-05-03 11:11:00,
2015-05-03 06:16:00,51.5,17.7,29.91,SE,136,3.0,4.0,26,0.00,,,0.00,0,Wunderground v.1.15,2015-05-03 11:16:00,
2015-05-03 06:21:00,52.2,20.9,29.91,ESE,107,1.0,3.0,29,0.00,,,0.00,0,Wunderground v.1.15,2015-05-03 11:21:00,
2015-05-03 06:26:00,52.8,21.4,29.91,ESE,120,0.0,5.0,29,0.00,,,0.00,0,Wunderground v.1.15,2015-05-03 11:26:00,
2015-05-03 06:31:00,53.0,19.9,29.92,ESE,120,0.0,0.0,27,0.00,,,0.00,0,Wunderground v.1.15,2015-05-03 11:31:00,
2015-05-03 06:36:00,53.2,18.2,29.92,ESE,121,5.0,5.0,25,0.00,,,0.00,0,Wunderground v.1.15,2015-05-03 11:36:00,
2015-05-03 06:41:00,53.2,15.3,29.91,SE,128,2.0,3.0,22,0.00,,,0.00,0,Wunderground v.1.15,2015-05-03 11:41:00,
2015-05-03 06:46:00,53.1,13.0,29.91,ESE,121,2.0,4.0,20,0.00,,,0.00,0,Wunderground v.1.15,2015-05-03 11:46:00,
2015-05-03 06:51:00,53.2,13.1,29.91,ESE,121,2.0,4.0,20,0.00,,,0.00,0,Wunderground v.1.15,2015-05-03 11:51:00,
2015-05-03 06:56:00,53.3,14.3,29.91,ESE,121,0.0,4.0,21,0.00,,,0.00,0,Wunderground v.1.15,2015-05-03 11:56:00,
2015-05-03 07:01:00,53.3,13.2,29.92,ESE,121,0.0,3.0,20,0.00,,,0.00,0,Wunderground v.1.15,2015-05-03 12:01:00,
2015-05-03 07:06:00,53.4,13.3,29.93,ESE,121,2.0,3.0,20,0.00,,,0.00,0,Wunderground v.1.15,2015-05-03 12:06:00,
2015-05-03 07:11:00,53.6,13.4,29.93,ESE,121,2.0,2.0,20,0.00,,,0.00,0,Wunderground v.1.15,2015-05-03 12:11:00,
2015-05-03 07:16:00,53.7,13.5,29.92,ESE,121,0.0,2.0,20,0.00,,,0.00,0,Wunderground v.1.15,2015-05-03 12:16:00,
2015-05-03 07:21:00,53.8,13.6,29.92,ESE,121,1.0,1.0,20,0.00,,,0.00,0,Wunderground v.1.15,2015-05-03 12:21:00,
2015-05-03 07:26:00,54.0,13.8,29.92,ESE,121,1.0,2.0,20,0.00,,,0.00,0,Wunderground v.1.15,2015-05-03 12:26:00,
2015-05-03 07:31:00,54.2,13.9,29.92,ESE,121,1.0,2.0,20,0.00,,,0.00,0,Wunderground v.1.15,2015-05-03 12:31:00,
2015-05-03 07:36:00,54.4,14.1,29.92,ESE,121,1.0,2.0,20,0.00,,,0.00,0,Wunderground v.1.15,2015-05-03 12:36:00,
2015-05-03 07:41:00,54.7,13.2,29.92,ESE,121,2.0,3.0,19,0.00,,,0.00,0,Wunderground v.1.15,2015-05-03 12:41:00,
2015-05-03 07:46:00,55.0,12.2,29.92,ESE,121,2.0,3.0,18,0.00,,,0.00,0,Wunderground v.1.15,2015-05-03 12:46:00,
2015-05-03 07:51:00,55.3,11.2,29.93,ESE,121,2.0,3.0,17,0.00,,,0.00,0,Wunderground v.1.15,2015-05-03 12:51:00,
2015-05-03 07:56:00,55.7,8.7,29.92,ESE,109,2.0,5.0,15,0.00,,,0.00,0,Wunderground v.1.15,2015-05-03 12:56:00,
2015-05-03 08:01:00,56.0,2.1,29.92,ESE,113,0.0,4.0,11,0.00,,,0.00,0,Wunderground v.1.15,2015-05-03 13:01:00,
2015-05-03 08:06:00,56.3,-1.9,29.93,East,96,2.0,4.0,9,0.00,,,0.00,0,Wunderground v.1.15,2015-05-03 13:06:00,
2015-05-03 08:11:00,56.4,-4.3,29.93,ESE,122,2.0,5.0,8,0.00,,,0.00,0,Wunderground v.1.15,2015-05-03 13:11:00,
2015-05-03 08:16:00,56.5,-7.0,29.94,East,84,1.0,5.0,7,0.00,,,0.00,0,Wunderground v.1.15,2015-05-03 13:16:00,
2015-05-03 08:21:00,56.7,-10.0,29.94,SE,145,3.0,7.0,6,0.00,,,0.00,0,Wunderground v.1.15,2015-05-03 13:21:00,
2015-05-03 08:26:00,56.9,-9.9,29.94,SE,143,2.0,7.0,6,0.00,,,0.00,0,Wunderground v.1.15,2015-05-03 13:26:00,
2015-05-03 08:31:00,57.2,-9.7,29.95,SSE,148,3.0,5.0,6,0.00,,,0.00,0,Wunderground v.1.15,2015-05-03 13:31:00,
2015-05-03 08:36:00,57.4,-9.5,29.94,SSE,160,2.0,6.0,6,0.00,,,0.00,0,Wunderground v.1.15,2015-05-03 13:36:00,
2015-05-03 08:41:00,57.9,-12.8,29.95,SSE,149,3.0,5.0,5,0.00,,,0.00,0,Wunderground v.1.15,2015-05-03 13:41:00,
2015-05-03 08:46:00,58.4,-99.9,29.94,SE,142,6.0,8.0,255,0.00,,,0.00,0,Wunderground v.1.15,2015-05-03 13:46:00,
2015-05-03 08:51:00,58.8,-22.2,29.94,SSW,210,5.0,7.0,3,0.00,,,0.00,0,Wunderground v.1.15,2015-05-03 13:51:00,
2015-05-03 08:56:00,59.0,-29.6,29.94,South,172,3.0,7.0,2,0.00,,,0.00,0,Wunderground v.1.15,2015-05-03 13:56:00,
2015-05-03 09:01:00,59.3,-29.4,29.95,SW,218,5.0,6.0,2,0.00,,,0.00,0,Wunderground v.1.15,2015-05-03 14:01:00,
2015-05-03 09:06:00,59.6,-41.6,29.95,SSE,157,4.0,8.0,1,0.00,,,0.00,0,Wunderground v.1.15,2015-05-03 14:06:00,
2015-05-03 09:11:00,59.7,-41.5,29.94,SSE,165,3.0,9.0,1,0.00,,,0.00,0,Wunderground v.1.15,2015-05-03 14:11:00,
2015-05-03 09:16:00,60.1,-41.2,29.94,SSW,200,5.0,10.0,1,0.00,,,0.00,0,Wunderground v.1.15,2015-05-03 14:16:00,
2015-05-03 09:21:00,60.5,-99.9,29.94,SSW,198,4.0,8.0,0,0.00,,,0.00,0,Wunderground v.1.15,2015-05-03 14:21:00,
2015-05-03 09:26:00,60.8,-99.9,29.94,SSE,152,4.0,8.0,0,0.00,,,0.00,0,Wunderground v.1.15,2015-05-03 14:26:00,
2015-05-03 09:31:00,61.3,-99.9,29.94,SSE,155,3.0,7.0,0,0.00,,,0.00,0,Wunderground v.1.15,2015-05-03 14:31:00,
2015-05-03 09:36:00,61.7,61.7,29.94,South,179,3.0,8.0,100,0.00,,,0.00,0,Wunderground v.1.15,2015-05-03 14:36:00,
2015-05-03 09:41:00,62.1,62.1,29.94,South,190,3.0,6.0,100,0.00,,,0.00,0,Wunderground v.1.15,2015-05-03 14:41:00,
2015-05-03 09:46:00,62.6,62.6,29.93,SSE,156,5.0,8.0,100,0.00,,,0.00,0,Wunderground v.1.15,2015-05-03 14:46:00,
2015-05-03 09:51:00,62.6,62.6,29.93,SSE,162,3.0,8.0,100,0.00,,,0.00,0,Wunderground v.1.15,2015-05-03 14:51:00,
2015-05-03 09:56:00,63.1,63.1,29.93,SSE,152,6.0,8.0,100,0.00,,,0.00,0,Wunderground v.1.15,2015-05-03 14:56:00,
2015-05-03 10:01:00,63.5,63.5,29.93,SSE,149,7.0,11.0,100,0.00,,,0.00,0,Wunderground v.1.15,2015-05-03 15:01:00,
2015-05-03 10:06:00,63.7,63.7,29.92,SSE,147,8.0,11.0,100,0.00,,,0.00,0,Wunderground v.1.15,2015-05-03 15:06:00,
2015-05-03 10:11:00,64.4,64.4,29.92,SSE,161,9.0,12.0,100,0.00,,,0.00,0,Wunderground v.1.15,2015-05-03 15:11:00,
2015-05-03 10:16:00,64.2,64.2,29.92,South,177,3.0,15.0,100,0.00,,,0.00,0,Wunderground v.1.15,2015-05-03 15:16:00,
2015-05-03 10:21:00,64.7,64.7,29.91,SE,144,6.0,8.0,100,0.00,,,0.00,0,Wunderground v.1.15,2015-05-03 15:21:00,
2015-05-03 10:26:00,64.9,64.9,29.90,SE,141,5.0,11.0,100,0.00,,,0.00,0,Wunderground v.1.15,2015-05-03 15:26:00,
2015-05-03 10:31:00,65.3,65.3,29.90,SE,139,9.0,11.0,100,0.00,,,0.00,0,Wunderground v.1.15,2015-05-03 15:31:00,
2015-05-03 10:36:00,65.5,65.5,29.90,SSE,162,10.0,16.0,100,0.00,,,0.00,0,Wunderground v.1.15,2015-05-03 15:36:00,
2015-05-03 10:41:00,65.5,65.5,29.91,SSW,199,8.0,13.0,100,0.00,,,0.00,0,Wunderground v.1.15,2015-05-03 15:41:00,
2015-05-03 10:46:00,66.3,66.3,29.91,SE,139,5.0,13.0,100,0.00,,,0.00,0,Wunderground v.1.15,2015-05-03 15:46:00,
2015-05-03 10:51:00,66.6,66.6,29.91,SSW,194,4.0,8.0,100,0.00,,,0.00,0,Wunderground v.1.15,2015-05-03 15:51:00,
2015-05-03 10:56:00,67.0,67.0,29.92,SSW,198,5.0,11.0,100,0.00,,,0.00,0,Wunderground v.1.15,2015-05-03 15:56:00,
2015-05-03 11:01:00,67.7,67.7,29.92,SSE,168,9.0,12.0,100,0.00,,,0.00,0,Wunderground v.1.15,2015-05-03 16:01:00,
2015-05-03 11:06:00,68.5,68.5,29.92,SE,137,6.0,12.0,100,0.00,,,0.00,0,Wunderground v.1.15,2015-05-03 16:06:00,
2015-05-03 11:11:00,68.4,68.4,29.93,South,182,4.0,5.0,100,0.00,,,0.00,0,Wunderground v.1.15,2015-05-03 16:11:00,
2015-05-03 11:16:00,68.6,68.6,29.93,SSW,199,2.0,9.0,100,0.00,,,0.00,0,Wunderground v.1.15,2015-05-03 16:16:00,
2015-05-03 11:21:00,69.3,69.3,29.93,WSW,243,1.0,5.0,100,0.00,,,0.00,0,Wunderground v.1.15,2015-05-03 16:21:00,
2015-05-03 11:26:00,70.2,70.2,29.93,South,169,2.0,5.0,100,0.00,,,0.00,0,Wunderground v.1.15,2015-05-03 16:26:00,
2015-05-03 11:31:00,71.1,71.1,29.94,South,186,4.0,8.0,100,0.00,,,0.00,0,Wunderground v.1.15,2015-05-03 16:31:00,
2015-05-03 11:36:00,71.5,71.5,29.93,SW,225,6.0,10.0,100,0.00,,,0.00,0,Wunderground v.1.15,2015-05-03 16:36:00,
2015-05-03 11:41:00,70.7,70.7,29.93,SW,225,0.0,5.0,100,0.00,,,0.00,0,Wunderground v.1.15,2015-05-03 16:41:00,
2015-05-03 11:46:00,70.6,70.6,29.93,SW,227,5.0,6.0,100,0.00,,,0.00,0,Wunderground v.1.15,2015-05-03 16:46:00,
2015-05-03 11:51:00,71.2,71.2,29.93,SSW,206,7.0,7.0,100,0.00,,,0.00,0,Wunderground v.1.15,2015-05-03 16:51:00,
2015-05-03 11:56:00,71.1,71.1,29.93,SE,128,1.0,10.0,100,0.00,,,0.00,0,Wunderground v.1.15,2015-05-03 16:56:00,
2015-05-03 12:01:00,71.4,71.4,29.93,SSE,157,3.0,9.0,100,0.00,,,0.00,0,Wunderground v.1.15,2015-05-03 17:01:00,
2015-05-03 12:06:00,71.3,71.3,29.93,ESE,105,1.0,9.0,100,0.00,,,0.00,0,Wunderground v.1.15,2015-05-03 17:06:00,
2015-05-03 12:11:00,71.9,71.9,29.93,SW,229,2.0,6.0,100,0.00,,,0.00,0,Wunderground v.1.15,2015-05-03 17:11:00,
2015-05-03 12:16:00,72.1,72.1,29.93,South,186,5.0,7.0,100,0.00,,,0.00,0,Wunderground v.1.15,2015-05-03 17:16:00,
2015-05-03 12:21:00,72.4,72.4,29.93,SSW,197,6.0,7.0,100,0.00,,,0.00,0,Wunderground v.1.15,2015-05-03 17:21:00,
2015-05-03 12:26:00,72.7,72.7,29.93,WSW,245,3.0,7.0,100,0.00,,,0.00,0,Wunderground v.1.15,2015-05-03 17:26:00,
2015-05-03 12:31:00,73.0,73.0,29.93,South,174,6.0,7.0,100,0.00,,,0.00,0,Wunderground v.1.15,2015-05-03 17:31:00,
2015-05-03 12:36:00,73.0,73.0,29.93,SW,216,5.0,9.0,100,0.00,,,0.00,0,Wunderground v.1.15,2015-05-03 17:36:00,
2015-05-03 12:41:00,72.6,72.6,29.93,SSW,193,5.0,9.0,100,0.00,,,0.00,0,Wunderground v.1.15,2015-05-03 17:41:00,
2015-05-03 12:46:00,72.5,72.5,29.93,SW,233,3.0,9.0,100,0.00,,,0.00,0,Wunderground v.1.15,2015-05-03 17:46:00,
2015-05-03 12:51:00,72.7,72.7,29.93,SW,217,2.0,4.0,100,0.00,,,0.00,0,Wunderground v.1.15,2015-05-03 17:51:00,
2015-05-03 12:56:00,72.9,72.9,29.93,South,191,5.0,5.0,100,0.00,,,0.00,0,Wunderground v.1.15,2015-05-03 17:56:00,
2015-05-03 13:01:00,73.7,73.7,29.93,SW,219,4.0,7.0,100,0.00,,,0.00,0,Wunderground v.1.15,2015-05-03 18:01:00,
2015-05-03 13:06:00,74.1,74.1,29.93,SSW,204,4.0,8.0,100,0.00,,,0.00,0,Wunderground v.1.15,2015-05-03 18:06:00,
2015-05-03 13:11:00,74.3,74.3,29.93,WSW,252,3.0,5.0,100,0.00,,,0.00,0,Wunderground v.1.15,2015-05-03 18:11:00,
2015-05-03 13:16:00,74.1,74.1,29.93,WNW,288,1.0,5.0,100,0.00,,,0.00,0,Wunderground v.1.15,2015-05-03 18:16:00,
2015-05-03 13:21:00,74.4,74.4,29.93,WSW,241,1.0,5.0,100,0.00,,,0.00,0,Wunderground v.1.15,2015-05-03 18:21:00,
2015-05-03 13:26:00,75.2,75.2,29.92,North,352,4.0,5.0,100,0.00,,,0.00,0,Wunderground v.1.15,2015-05-03 18:26:00,
2015-05-03 13:31:00,75.7,75.7,29.92,WNW,291,6.0,7.0,100,0.00,,,0.00,0,Wunderground v.1.15,2015-05-03 18:31:00,
2015-05-03 13:36:00,75.5,-99.9,29.92,SSW,197,5.0,8.0,0,0.00,,,0.00,0,Wunderground v.1.15,2015-05-03 18:36:00,
2015-05-03 13:41:00,75.3,75.3,29.92,South,175,0.0,1.0,100,0.00,,,0.00,0,Wunderground v.1.15,2015-05-03 18:41:00,
2015-05-03 13:46:00,76.0,76.0,29.92,SSW,212,3.0,7.0,100,0.00,,,0.00,0,Wunderground v.1.15,2015-05-03 18:46:00,
2015-05-03 13:51:00,76.0,-99.9,29.91,SSW,195,6.0,6.0,0,0.00,,,0.00,0,Wunderground v.1.15,2015-05-03 18:51:00,
2015-05-03 13:56:00,75.7,75.7,29.91,WNW,286,1.0,11.0,100,0.00,,,0.00,0,Wunderground v.1.15,2015-05-03 18:56:00,
2015-05-03 14:01:00,76.3,-99.9,29.92,SSW,212,3.0,5.0,0,0.00,,,0.00,0,Wunderground v.1.15,2015-05-03 19:01:00,
2015-05-03 14:06:00,76.6,76.6,29.91,SSE,163,1.0,7.0,100,0.00,,,0.00,0,Wunderground v.1.15,2015-05-03 19:06:00,
2015-05-03 14:11:00,77.3,-30.8,29.90,SSE,147,2.0,5.0,1,0.00,,,0.00,0,Wunderground v.1.15,2015-05-03 19:11:00,
2015-05-03 14:16:00,77.3,-99.9,29.90,West,280,6.0,6.0,0,0.00,,,0.00,0,Wunderground v.1.15,2015-05-03 19:16:00,
2015-05-03 14:21:00,77.3,-30.8,29.90,SW,233,1.0,4.0,1,0.00,,,0.00,0,Wunderground v.1.15,2015-05-03 19:21:00,
2015-05-03 14:26:00,77.4,-17.7,29.90,South,181,5.0,7.0,2,0.00,,,0.00,0,Wunderground v.1.15,2015-05-03 19:26:00,
2015-05-03 14:31:00,76.9,-31.0,29.91,South,176,2.0,7.0,1,0.00,,,0.00,0,Wunderground v.1.15,2015-05-03 19:31:00,
2015-05-03 14:36:00,77.6,-30.6,29.91,WSW,251,4.0,8.0,1,0.00,,,0.00,0,Wunderground v.1.15,2015-05-03 19:36:00,
2015-05-03 14:41:00,77.8,-30.5,29.91,NW,315,1.0,5.0,1,0.00,,,0.00,0,Wunderground v.1.15,2015-05-03 19:41:00,
2015-05-03 14:46:00,78.4,-17.0,29.90,West,268,2.0,5.0,2,0.00,,,0.00,0,Wunderground v.1.15,2015-05-03 19:46:00,
2015-05-03 14:51:00,78.5,-17.0,29.90,West,262,1.0,4.0,2,0.00,,,0.00,0,Wunderground v.1.15,2015-05-03 19:51:00,
2015-05-03 14:56:00,79.1,-16.6,29.91,NNW,328,1.0,6.0,2,0.00,,,0.00,0,Wunderground v.1.15,2015-05-03 19:56:00,
2015-05-03 15:06:00,79.0,-99.9,29.91,SW,223,4.0,8.0,255,0.00,,,0.00,0,Wunderground v.1.15,2015-05-03 20:06:00,
2015-05-03 15:11:00,78.2,-9.1,29.91,SSW,197,3.0,6.0,3,0.00,,,0.00,0,Wunderground v.1.15,2015-05-03 20:11:00,
2015-05-03 15:16:00,78.6,-8.8,29.91,SSE,162,1.0,6.0,3,0.00,,,0.00,0,Wunderground v.1.15,2015-05-03 20:16:00,
2015-05-03 15:21:00,78.6,-16.9,29.90,NE,49,2.0,4.0,2,0.00,,,0.00,0,Wunderground v.1.15,2015-05-03 20:21:00,
2015-05-03 15:26:00,78.5,-17.0,29.91,NE,48,4.0,5.0,2,0.00,,,0.00,0,Wunderground v.1.15,2015-05-03 20:26:00,
2015-05-03 15:31:00,78.3,-17.1,29.90,NE,46,2.0,3.0,2,0.00,,,0.00,0,Wunderground v.1.15,2015-05-03 20:31:00,
2015-05-03 15:36:00,78.4,-17.0,29.90,North,2,1.0,4.0,2,0.00,,,0.00,0,Wunderground v.1.15,2015-05-03 20:36:00,
2015-05-03 15:41:00,78.6,-8.8,29.90,NE,44,2.0,5.0,3,0.00,,,0.00,0,Wunderground v.1.15,2015-05-03 20:41:00,
2015-05-03 15:46:00,78.8,-8.6,29.90,North,0,2.0,5.0,3,0.00,,,0.00,0,Wunderground v.1.15,2015-05-03 20:46:00,
2015-05-03 15:51:00,78.7,-16.8,29.89,South,179,3.0,5.0,2,0.00,,,0.00,0,Wunderground v.1.15,2015-05-03 20:51:00,
2015-05-03 15:56:00,79.1,-16.6,29.89,NE,43,1.0,5.0,2,0.00,,,0.00,0,Wunderground v.1.15,2015-05-03 20:56:00,
2015-05-03 16:01:00,79.5,-8.2,29.88,ENE,60,4.0,6.0,3,0.00,,,0.00,0,Wunderground v.1.15,2015-05-03 21:01:00,
2015-05-03 16:06:00,79.0,-8.5,29.88,NE,56,2.0,7.0,3,0.00,,,0.00,0,Wunderground v.1.15,2015-05-03 21:06:00,
2015-05-03 16:11:00,78.7,-16.8,29.87,North,10,3.0,6.0,2,0.00,,,0.00,0,Wunderground v.1.15,2015-05-03 21:11:00,
2015-05-03 16:16:00,78.2,-9.1,29.86,North,0,4.0,6.0,3,0.00,,,0.00,0,Wunderground v.1.15,2015-05-03 21:16:00,
2015-05-03 16:21:00,77.8,-9.3,29.86,North,1,2.0,4.0,3,0.00,,,0.00,0,Wunderground v.1.15,2015-05-03 21:21:00,
2015-05-03 16:26:00,77.5,-17.6,29.86,NNE,20,3.0,5.0,2,0.00,,,0.00,0,Wunderground v.1.15,2015-05-03 21:26:00,
2015-05-03 16:31:00,77.2,-17.8,29.85,NNE,29,3.0,5.0,2,0.00,,,0.00,0,Wunderground v.1.15,2015-05-03 21:31:00,
2015-05-03 16:36:00,76.9,-31.0,29.86,NNE,24,3.0,5.0,1,0.00,,,0.00,0,Wunderground v.1.15,2015-05-03 21:36:00,
2015-05-03 16:41:00,76.7,-31.2,29.88,WNW,299,5.0,6.0,1,0.00,,,0.00,0,Wunderground v.1.15,2015-05-03 21:41:00,
2015-05-03 16:46:00,75.2,75.2,29.88,West,273,8.0,15.0,100,0.00,,,0.00,0,Wunderground v.1.15,2015-05-03 21:46:00,
2015-05-03 16:51:00,70.8,70.8,29.90,NNW,348,9.0,10.0,100,0.00,,,0.00,0,Wunderground v.1.15,2015-05-03 21:51:00,
2015-05-03 16:56:00,66.8,66.8,29.91,North,354,8.0,17.0,100,0.00,,,0.00,0,Wunderground v.1.15,2015-05-03 21:56:00,
2015-05-03 17:01:00,64.4,-26.1,29.92,WNW,286,6.0,10.0,2,0.00,,,0.00,0,Wunderground v.1.15,2015-05-03 22:01:00,
2015-05-03 17:06:00,63.4,11.6,29.93,NW,314,3.0,13.0,13,0.00,,,0.00,0,Wunderground v.1.15,2015-05-03 22:06:00,
2015-05-03 17:11:00,63.0,21.2,29.93,NNE,16,1.0,3.0,20,0.00,,,0.00,0,Wunderground v.1.15,2015-05-03 22:11:00,
2015-05-03 17:16:00,63.1,31.1,29.94,SSE,164,5.0,5.0,30,0.00,,,0.00,0,Wunderground v.1.15,2015-05-03 22:16:00,
2015-05-03 17:21:00,63.2,35.8,29.95,SE,132,5.0,7.0,36,0.00,,,0.00,0,Wunderground v.1.15,2015-05-03 22:21:00,
2015-05-03 17:26:00,63.1,41.4,29.95,SE,138,2.0,8.0,45,0.00,,,0.00,0,Wunderground v.1.15,2015-05-03 22:26:00,
2015-05-03 17:31:00,63.2,43.2,29.95,SE,136,0.0,3.0,48,0.00,,,0.00,0,Wunderground v.1.15,2015-05-03 22:31:00,
2015-05-03 17:36:00,63.3,45.9,29.95,WSW,251,3.0,6.0,53,0.00,,,0.00,0,Wunderground v.1.15,2015-05-03 22:36:00,
2015-05-03 17:41:00,63.8,50.1,29.96,WNW,283,6.0,9.0,61,0.00,,,0.00,0,Wunderground v.1.15,2015-05-03 22:41:00,
2015-05-03 17:46:00,63.7,40.8,29.97,North,358,8.0,16.0,43,0.00,,,0.00,0,Wunderground v.1.15,2015-05-03 22:46:00,
2015-05-03 17:51:00,63.1,24.7,29.97,NW,316,8.0,15.0,23,0.00,,,0.00,0,Wunderground v.1.15,2015-05-03 22:51:00,
2015-05-03 17:56:00,62.3,19.5,29.96,North,0,1.0,16.0,19,0.00,,,0.00,0,Wunderground v.1.15,2015-05-03 22:56:00,
2015-05-03 18:01:00,61.9,17.9,29.97,NE,35,6.0,9.0,18,0.00,,,0.00,0,Wunderground v.1.15,2015-05-03 23:01:00,
2015-05-03 18:06:00,62.0,15.2,29.97,North,4,5.0,13.0,16,0.00,,,0.00,0,Wunderground v.1.15,2015-05-03 23:06:00,
2015-05-03 18:11:00,62.4,12.5,29.97,North,7,2.0,8.0,14,0.00,,,0.00,0,Wunderground v.1.15,2015-05-03 23:11:00,
2015-05-03 18:16:00,62.7,2.9,29.97,NNW,337,2.0,8.0,9,0.00,,,0.00,0,Wunderground v.1.15,2015-05-03 23:16:00,
2015-05-03 18:21:00,63.1,-9.1,29.97,North,358,4.0,11.0,5,0.00,,,0.00,0,Wunderground v.1.15,2015-05-03 23:21:00,
2015-05-03 18:31:00,63.8,63.8,29.97,NE,35,6.0,8.0,100,0.00,,,0.00,0,Wunderground v.1.15,2015-05-03 23:31:00,
2015-05-03 18:36:00,63.6,63.6,29.95,NNW,331,5.0,11.0,100,0.00,,,0.00,0,Wunderground v.1.15,2015-05-03 23:36:00,
2015-05-03 18:41:00,63.3,63.3,29.94,NNE,30,5.0,8.0,100,0.00,,,0.00,0,Wunderground v.1.15,2015-05-03 23:41:00,